STARLINK-5652, 55334

Orbit data source: Space-Track

STARLINK-5652, 55334 is a payload satellite owned by SpaceX/Seattle (US) in LEO that was launched on Thu, 26 Jan 2023 UTC via an FALCON 9 launch vehicle from the Air Force Eastern Test Range (AFETR). Payload-class satellites include a variety of spacecraft equipped with specific instruments for various scientific and technological missions. These include communications satellites like Starlink; space stations such as the ISS; scientific satellites like the Hubble; Earth observation satellites from companies like Planet Labs, Umbra, and HawkEye 360; GPS; miniature CubeSats for education and research; and military/defense satellites.

Loading next visibility...
Identifier
55334, 2023-013D
Orbit
LEO
Country
Flag of USUS
Related business
Manufacturer
SpaceX/Seattle
Mission
Operational Commercial Communications
Bus & Motor
STARLINK, Unknown motor
Mass
305 kg wet, ~290 kg dry
Launch date (UTC)
2023-01-26 (3 years ago)
Launch vehicle
FALCON 9
Launch site
Air Force Eastern Test Range (AFETR)
Object type
Payload
Rocket body
Debris
Shape & HBR
Box + 1 Pan, 10.1 m
Radar Cross Section
13.562 m², Large (>1 m²)

Expand to show TLE details & history
Last TLE update: 2 days ago

TLE from 2 days ago
0 STARLINK-5652
1 55334U 23013D   26171.09642527  .00000298  00000-0  20356-4 0  9990
2 55334  43.0031  85.1070 0001565 263.0546  97.0128 15.27578002187333
Epoch: 2026-06-20T02:18Z
TLE epoch observation values (Epoch: 2026-06-20T02:18:51.143Z)
Latitude
0.00001°
Longitude
142.07796°
Altitude
482.962 km
Speed
7.626 km/s
True Right ascension
05h 40m 25s
True Declination
0° 00' 00"
Sunlit
Object was in daylight at epoch
Visualization orbit readout
Latitude
Unknown
Longitude
Unknown
Altitude
Unknown
Speed
Unknown
Apparent Right ascension
Unknown
Apparent Declination
Unknown
Sunlit
N/A
Visualization observer readout
Local Sidereal Time
23:27:23
Azimuth
Unknown
Elevation
Unknown
Doppler factor
Unknown
Orbital elements
Apogee altitude
486.074 km
Perigee altitude
483.926 km
Semi-major axis
6,863.137 km
Eccentricity
0.00016
Inclination
43.0031°
RAAN
85.107°
Arg. of periapsis
263.0546°
True anomaly
97.0306°
Mean anomaly
97.0128°
Eccentric anomaly
97.0217°
Mean motion
3.81733 °/min
Orbital period
94.31 mins
BSTAR
0.000020356
Loading maneuver chart data...
Computing Atmospheric mass density...
Loading historical data...
Loading historical data...
Loading historical data...
Loading historical data...
Loading historical data...
Loading historical data...
Loading historical data...

Documentation

Showing up to 5 results
|